DLH6LM EDDF-EPWA

Flight info

Callsign DLH6LM
Flight time 1h 14m
Altitude 37000
Route SULUS7S SULUS L984 OKG DCT BALTU DCT LEGAZ DCT LAGAR DCT OKENO Q277 AGAVA
Aircraft A320/M-SDE3FGHIRWY/LB1

Departure

Time 2026-05-07 18:19
Airport Frankfurt Main Airport (EDDF)

Arrival

Time 2026-05-07 19:33
Airport Warsaw Chopin Airport (EPWA)
Time Latitude Longitude Altitude Speed Heading
2026-05-07 17:51 50.04431 8.56329 356 ft 0 kts 167°
2026-05-07 18:06 50.04455 8.56321 363 ft 4 kts 167°
2026-05-07 18:07 50.04476 8.56313 361 ft 4 kts 180°
2026-05-07 18:07 50.04499 8.56324 356 ft 4 kts 231°
2026-05-07 18:07 50.04511 8.56360 362 ft 4 kts 250°
2026-05-07 18:07 50.04514 8.56373 361 ft 0 kts 249°
2026-05-07 18:10 50.04514 8.56371 363 ft 1 kts 249°
2026-05-07 18:10 50.04506 8.56341 361 ft 4 kts 249°
2026-05-07 18:10 50.04491 8.56276 359 ft 8 kts 249°
2026-05-07 18:10 50.04465 8.56172 360 ft 12 kts 249°
2026-05-07 18:11 50.04461 8.56153 358 ft 0 kts 249°
2026-05-07 18:11 50.04457 8.56139 358 ft 3 kts 249°
2026-05-07 18:12 50.04445 8.56090 358 ft 7 kts 249°
2026-05-07 18:12 50.04409 8.56027 356 ft 10 kts 194°
2026-05-07 18:12 50.04333 8.56059 360 ft 14 kts 159°
2026-05-07 18:12 50.04255 8.56004 355 ft 16 kts 248°
2026-05-07 18:13 50.04160 8.55937 360 ft 19 kts 161°
2026-05-07 18:13 50.04060 8.55947 359 ft 16 kts 232°
2026-05-07 18:13 50.04008 8.55770 355 ft 20 kts 245°
2026-05-07 18:13 50.03959 8.55577 352 ft 21 kts 249°
2026-05-07 18:14 50.03917 8.55399 356 ft 17 kts 249°
2026-05-07 18:14 50.03870 8.55207 356 ft 21 kts 251°
2026-05-07 18:14 50.03816 8.54976 351 ft 16 kts 249°
2026-05-07 18:14 50.03772 8.54794 351 ft 13 kts 250°
2026-05-07 18:15 50.03735 8.54639 355 ft 18 kts 250°
2026-05-07 18:15 50.03703 8.54504 351 ft 0 kts 249°
2026-05-07 18:15 50.03686 8.54436 345 ft 12 kts 249°
2026-05-07 18:15 50.03668 8.54361 347 ft 0 kts 249°
2026-05-07 18:17 50.03668 8.54360 347 ft 1 kts 249°
2026-05-07 18:17 50.03644 8.54313 348 ft 10 kts 213°
2026-05-07 18:17 50.03547 8.54348 349 ft 18 kts 159°
2026-05-07 18:18 50.03492 8.54434 349 ft 10 kts 72°
2026-05-07 18:18 50.03524 8.54554 348 ft 20 kts 70°
2026-05-07 18:18 50.03656 8.55110 351 ft 90 kts 70°
2026-05-07 18:18 50.03942 8.56303 358 ft 144 kts 69°
2026-05-07 18:19 50.04321 8.57906 674 ft 162 kts 68°
2026-05-07 18:19 50.04706 8.59560 1337 ft 163 kts 70°
2026-05-07 18:19 50.05089 8.61259 1881 ft 174 kts 69°
2026-05-07 18:19 50.05513 8.63151 2176 ft 198 kts 69°
2026-05-07 18:20 50.05994 8.65292 2584 ft 219 kts 69°
2026-05-07 18:20 50.06503 8.67572 3301 ft 226 kts 69°
2026-05-07 18:20 50.07016 8.69913 4073 ft 231 kts 72°
2026-05-07 18:20 50.07151 8.72438 4739 ft 245 kts 96°
2026-05-07 18:21 50.06862 8.75182 5160 ft 267 kts 99°
2026-05-07 18:21 50.06521 8.78073 5905 ft 275 kts 100°
2026-05-07 18:21 50.06165 8.81020 6718 ft 280 kts 100°
2026-05-07 18:21 50.05825 8.84025 7521 ft 284 kts 95°
2026-05-07 18:22 50.05792 8.87106 8322 ft 287 kts 88°
2026-05-07 18:22 50.05826 8.89213 8884 ft 289 kts 88°
2026-05-07 18:22 50.05901 8.93393 9965 ft 295 kts 88°
2026-05-07 18:22 50.05960 8.96628 10513 ft 308 kts 88°
2026-05-07 18:23 50.06022 9.00083 10735 ft 331 kts 88°
2026-05-07 18:23 50.06086 9.03773 11027 ft 349 kts 88°
2026-05-07 18:23 50.06150 9.07596 11634 ft 356 kts 88°
2026-05-07 18:23 50.06211 9.11474 12325 ft 361 kts 88°
2026-05-07 18:24 50.06270 9.15395 13017 ft 364 kts 88°
2026-05-07 18:24 50.06327 9.19356 13719 ft 368 kts 88°
2026-05-07 18:24 50.06381 9.23361 14335 ft 372 kts 88°
2026-05-07 18:24 50.06435 9.27404 14950 ft 376 kts 88°
2026-05-07 18:25 50.06491 9.31484 15565 ft 379 kts 88°
2026-05-07 18:25 50.06549 9.35602 16168 ft 382 kts 88°
2026-05-07 18:25 50.06604 9.39754 16762 ft 386 kts 88°
2026-05-07 18:25 50.06657 9.43942 17351 ft 389 kts 88°
2026-05-07 18:26 50.06706 9.48173 17933 ft 392 kts 89°
2026-05-07 18:26 50.06751 9.52434 18487 ft 396 kts 89°
2026-05-07 18:26 50.06798 9.56730 18985 ft 399 kts 89°
2026-05-07 18:26 50.06845 9.61058 19480 ft 401 kts 89°
2026-05-07 18:27 50.06889 9.65416 19987 ft 404 kts 89°
2026-05-07 18:27 50.06933 9.69800 20475 ft 406 kts 89°
2026-05-07 18:27 50.06976 9.74204 20989 ft 408 kts 89°
2026-05-07 18:27 50.07004 9.77200 21323 ft 410 kts 89°
2026-05-07 18:28 50.07056 9.83100 21947 ft 413 kts 89°
2026-05-07 18:28 50.07095 9.87587 22417 ft 416 kts 89°
2026-05-07 18:28 50.07133 9.92098 22880 ft 418 kts 89°
2026-05-07 18:28 50.07168 9.96642 23046 ft 420 kts 89°
2026-05-07 18:29 50.07202 10.01182 23075 ft 420 kts 89°
2026-05-07 18:29 50.07231 10.05722 23073 ft 419 kts 89°
2026-05-07 18:29 50.07257 10.10259 23076 ft 419 kts 89°
2026-05-07 18:29 50.07281 10.14792 23076 ft 419 kts 89°
2026-05-07 18:30 50.07304 10.19325 23079 ft 419 kts 89°
2026-05-07 18:30 50.07329 10.23878 23497 ft 422 kts 89°
2026-05-07 18:30 50.07355 10.28451 23913 ft 424 kts 89°
2026-05-07 18:30 50.07382 10.33045 24290 ft 426 kts 89°
2026-05-07 18:31 50.07410 10.37669 24660 ft 428 kts 89°
2026-05-07 18:31 50.07436 10.42318 25020 ft 430 kts 89°
2026-05-07 18:31 50.07456 10.46987 25368 ft 433 kts 89°
2026-05-07 18:31 50.07473 10.51681 25717 ft 435 kts 89°
2026-05-07 18:32 50.07488 10.56400 26064 ft 437 kts 89°
2026-05-07 18:32 50.07503 10.61134 26426 ft 438 kts 89°
2026-05-07 18:32 50.07515 10.65892 26778 ft 440 kts 89°
2026-05-07 18:32 50.07526 10.70667 27124 ft 442 kts 89°
2026-05-07 18:33 50.07533 10.75465 27468 ft 444 kts 89°
2026-05-07 18:33 50.07534 10.80282 27807 ft 446 kts 90°
2026-05-07 18:33 50.07534 10.85123 28121 ft 448 kts 90°
2026-05-07 18:33 50.07533 10.89981 28437 ft 450 kts 90°
2026-05-07 18:34 50.07530 10.94862 28741 ft 452 kts 90°
2026-05-07 18:34 50.07525 10.99763 29035 ft 454 kts 90°
2026-05-07 18:34 50.07518 11.04682 29333 ft 455 kts 89°
2026-05-07 18:34 50.07509 11.09616 29632 ft 457 kts 89°
2026-05-07 18:35 50.07498 11.14571 29924 ft 458 kts 90°
2026-05-07 18:35 50.07484 11.19535 30188 ft 460 kts 90°
2026-05-07 18:35 50.07468 11.24514 30496 ft 460 kts 90°
2026-05-07 18:35 50.07454 11.29488 30804 ft 459 kts 90°
2026-05-07 18:36 50.07440 11.34465 31092 ft 460 kts 90°
2026-05-07 18:36 50.07419 11.39377 31373 ft 460 kts 90°
2026-05-07 18:36 50.07402 11.42738 31560 ft 460 kts 90°
2026-05-07 18:36 50.07364 11.49342 31940 ft 461 kts 90°
2026-05-07 18:37 50.07333 11.54341 32182 ft 463 kts 90°
2026-05-07 18:37 50.07300 11.59346 32484 ft 463 kts 90°
2026-05-07 18:37 50.07265 11.64353 32788 ft 462 kts 90°
2026-05-07 18:37 50.07233 11.69357 33079 ft 463 kts 90°
2026-05-07 18:38 50.07213 11.72745 33270 ft 463 kts 90°
2026-05-07 18:38 50.07182 11.77751 33563 ft 463 kts 90°
2026-05-07 18:38 50.07148 11.82772 33856 ft 463 kts 90°
2026-05-07 18:38 50.07109 11.87787 34125 ft 464 kts 90°
2026-05-07 18:39 50.07070 11.92809 34360 ft 464 kts 91°
2026-05-07 18:39 50.07027 11.97834 34574 ft 465 kts 91°
2026-05-07 18:39 50.06978 12.02870 34769 ft 466 kts 91°
2026-05-07 18:39 50.06927 12.07922 34985 ft 467 kts 91°
2026-05-07 18:40 50.06878 12.12974 35201 ft 467 kts 91°
2026-05-07 18:40 50.06825 12.18029 35411 ft 467 kts 91°
2026-05-07 18:40 50.06765 12.23087 35624 ft 467 kts 92°
2026-05-07 18:40 50.06697 12.28144 35833 ft 468 kts 92°
2026-05-07 18:41 50.06624 12.33199 36032 ft 468 kts 92°
2026-05-07 18:41 50.06550 12.38261 36230 ft 468 kts 92°
2026-05-07 18:41 50.06512 12.43323 36418 ft 468 kts 90°
2026-05-07 18:41 50.06586 12.48392 36606 ft 468 kts 89°
2026-05-07 18:42 50.06744 12.53456 36788 ft 469 kts 88°
2026-05-07 18:42 50.06946 12.58520 36973 ft 469 kts 87°
2026-05-07 18:42 50.07152 12.63590 37038 ft 470 kts 87°
2026-05-07 18:43 50.07508 12.73743 37033 ft 470 kts 88°
2026-05-07 18:43 50.07778 12.83908 37035 ft 470 kts 89°
2026-05-07 18:44 50.08023 12.94073 37034 ft 470 kts 89°
2026-05-07 18:44 50.08272 13.04187 37033 ft 471 kts 89°
2026-05-07 18:45 50.08527 13.14439 37036 ft 471 kts 89°
2026-05-07 18:45 50.08771 13.24564 37041 ft 471 kts 88°
2026-05-07 18:46 50.10106 13.34535 37043 ft 473 kts 69°
2026-05-07 18:46 50.13262 13.43497 37047 ft 473 kts 58°
2026-05-07 18:47 50.16727 13.52213 37048 ft 473 kts 58°
2026-05-07 18:47 50.20168 13.60963 37051 ft 473 kts 58°
2026-05-07 18:48 50.23606 13.69726 37052 ft 473 kts 58°
2026-05-07 18:48 50.27044 13.78497 37058 ft 473 kts 58°
2026-05-07 18:49 50.30483 13.87280 37059 ft 473 kts 59°
2026-05-07 18:49 50.33907 13.96079 37044 ft 473 kts 59°
2026-05-07 18:50 50.37324 14.04903 37048 ft 474 kts 59°
2026-05-07 18:50 50.40737 14.13742 37050 ft 474 kts 59°
2026-05-07 18:51 50.44148 14.22607 37044 ft 475 kts 59°
2026-05-07 18:51 50.47550 14.31485 37054 ft 475 kts 59°
2026-05-07 18:52 50.50950 14.40373 37058 ft 475 kts 59°
2026-05-07 18:52 50.54349 14.49262 37048 ft 474 kts 59°
2026-05-07 18:53 50.57736 14.58171 37040 ft 475 kts 59°
2026-05-07 18:53 50.61111 14.67103 37038 ft 475 kts 60°
2026-05-07 18:54 50.64487 14.76055 37044 ft 475 kts 60°
2026-05-07 18:54 50.67305 14.85437 37047 ft 474 kts 70°
2026-05-07 18:55 50.69633 14.95165 37036 ft 474 kts 70°
2026-05-07 18:55 50.71973 15.04895 37034 ft 474 kts 70°
2026-05-07 18:56 50.74305 15.14627 37016 ft 474 kts 70°
2026-05-07 18:56 50.76626 15.24382 37017 ft 475 kts 71°
2026-05-07 18:57 50.78937 15.34168 37019 ft 475 kts 71°
2026-05-07 18:57 50.81016 15.44070 37031 ft 475 kts 75°
2026-05-07 18:58 50.82868 15.54086 37032 ft 474 kts 75°
2026-05-07 18:58 50.84705 15.64105 37035 ft 474 kts 75°
2026-05-07 18:59 50.86607 15.74106 37030 ft 474 kts 75°
2026-05-07 18:59 50.88523 15.84103 37035 ft 475 kts 75°
2026-05-07 19:00 50.90423 15.94114 37043 ft 475 kts 75°
2026-05-07 19:00 50.92302 16.04142 37045 ft 475 kts 75°
2026-05-07 19:01 50.94170 16.14181 37050 ft 475 kts 76°
2026-05-07 19:01 50.96028 16.24225 37030 ft 475 kts 76°
2026-05-07 19:02 50.97887 16.34271 37041 ft 474 kts 76°
2026-05-07 19:02 50.99741 16.44315 37046 ft 474 kts 76°
2026-05-07 19:03 51.01572 16.54308 37052 ft 474 kts 76°
2026-05-07 19:03 51.03403 16.64372 37054 ft 474 kts 76°
2026-05-07 19:04 51.05220 16.74438 37051 ft 474 kts 76°
2026-05-07 19:04 51.07024 16.84521 37040 ft 474 kts 77°
2026-05-07 19:05 51.08830 16.94611 37054 ft 475 kts 77°
2026-05-07 19:05 51.10630 17.04711 37053 ft 475 kts 77°
2026-05-07 19:06 51.12425 17.14825 37052 ft 475 kts 77°
2026-05-07 19:06 51.15089 17.30026 37052 ft 475 kts 77°
2026-05-07 19:07 51.16854 17.40173 37027 ft 475 kts 77°
2026-05-07 19:07 51.18616 17.50325 37035 ft 476 kts 77°
2026-05-07 19:08 51.20372 17.60488 37035 ft 475 kts 78°
2026-05-07 19:08 51.22116 17.70653 37040 ft 475 kts 78°
2026-05-07 19:09 51.23844 17.80821 37039 ft 475 kts 78°
2026-05-07 19:09 51.25564 17.90993 37008 ft 475 kts 78°
2026-05-07 19:10 51.27277 18.01170 37018 ft 475 kts 78°
2026-05-07 19:10 51.28983 18.11369 37017 ft 475 kts 78°
2026-05-07 19:11 51.29832 18.16482 36826 ft 476 kts 78°
2026-05-07 19:11 51.30677 18.21591 36570 ft 476 kts 79°
2026-05-07 19:11 51.31523 18.26704 36313 ft 476 kts 79°
2026-05-07 19:11 51.32369 18.31818 36063 ft 475 kts 79°
2026-05-07 19:12 51.33333 18.36884 35810 ft 479 kts 73°
2026-05-07 19:12 51.34518 18.41856 35566 ft 479 kts 73°
2026-05-07 19:12 51.35728 18.46831 35330 ft 480 kts 73°
2026-05-07 19:12 51.36951 18.51811 35058 ft 482 kts 73°
2026-05-07 19:13 51.38183 18.56816 34817 ft 484 kts 73°
2026-05-07 19:13 51.39413 18.61840 34586 ft 485 kts 74°
2026-05-07 19:13 51.40643 18.66883 34348 ft 486 kts 74°
2026-05-07 19:13 51.41869 18.71932 34108 ft 487 kts 74°
2026-05-07 19:14 51.43092 18.76996 33684 ft 488 kts 75°
2026-05-07 19:14 51.44315 18.82109 32511 ft 496 kts 75°
2026-05-07 19:14 51.45549 18.87294 31445 ft 500 kts 75°
2026-05-07 19:14 51.46783 18.92490 30794 ft 496 kts 75°
2026-05-07 19:15 51.48011 18.97635 30109 ft 492 kts 75°
2026-05-07 19:15 51.49232 19.02739 29354 ft 485 kts 75°
2026-05-07 19:15 51.50434 19.07749 28715 ft 478 kts 75°
2026-05-07 19:15 51.51616 19.12708 28067 ft 473 kts 75°
2026-05-07 19:16 51.52778 19.17626 27414 ft 468 kts 75°
2026-05-07 19:16 51.53921 19.22495 26774 ft 464 kts 75°
2026-05-07 19:16 51.55053 19.27327 26149 ft 460 kts 75°
2026-05-07 19:16 51.56175 19.32122 25527 ft 457 kts 75°
2026-05-07 19:17 51.57292 19.36884 24913 ft 453 kts 75°
2026-05-07 19:17 51.58398 19.41610 24319 ft 450 kts 75°
2026-05-07 19:17 51.59492 19.46296 23756 ft 446 kts 75°
2026-05-07 19:17 51.60577 19.50955 23129 ft 442 kts 74°
2026-05-07 19:18 51.61645 19.55557 22603 ft 436 kts 74°
2026-05-07 19:18 51.62695 19.60091 22090 ft 430 kts 74°
2026-05-07 19:18 51.63734 19.64577 21582 ft 425 kts 74°
2026-05-07 19:18 51.64757 19.69005 21058 ft 420 kts 73°
2026-05-07 19:19 51.65767 19.73393 20570 ft 415 kts 73°
2026-05-07 19:19 51.66763 19.77736 20064 ft 412 kts 73°
2026-05-07 19:19 51.67419 19.80597 19741 ft 410 kts 73°
2026-05-07 19:19 51.68405 19.84900 19213 ft 409 kts 73°
2026-05-07 19:20 51.69389 19.89190 18695 ft 407 kts 72°
2026-05-07 19:20 51.70367 19.93471 18149 ft 407 kts 72°
2026-05-07 19:20 51.71337 19.97744 17576 ft 405 kts 72°
2026-05-07 19:20 51.72300 20.01993 17056 ft 402 kts 72°
2026-05-07 19:21 51.73256 20.06218 16534 ft 400 kts 72°
2026-05-07 19:21 51.74206 20.10419 16012 ft 398 kts 72°
2026-05-07 19:21 51.75151 20.14604 15493 ft 396 kts 72°
2026-05-07 19:21 51.76089 20.18765 14970 ft 394 kts 71°
2026-05-07 19:22 51.77022 20.22916 14448 ft 392 kts 71°
2026-05-07 19:22 51.77947 20.27048 13962 ft 389 kts 71°
2026-05-07 19:22 51.78862 20.31140 13430 ft 385 kts 71°
2026-05-07 19:22 51.79754 20.35131 12837 ft 369 kts 71°
2026-05-07 19:23 51.80606 20.38945 12355 ft 353 kts 71°
2026-05-07 19:23 51.81423 20.42604 11870 ft 340 kts 71°
2026-05-07 19:23 51.82215 20.46161 11395 ft 336 kts 71°
2026-05-07 19:23 51.83004 20.49717 10863 ft 338 kts 71°
2026-05-07 19:24 51.83799 20.53321 10325 ft 340 kts 70°
2026-05-07 19:24 51.84579 20.56864 10209 ft 328 kts 70°
2026-05-07 19:24 51.85333 20.60281 10073 ft 317 kts 70°
2026-05-07 19:24 51.86063 20.63587 9957 ft 307 kts 70°
2026-05-07 19:25 51.86768 20.66790 9569 ft 299 kts 70°
2026-05-07 19:25 51.87464 20.69946 8922 ft 296 kts 70°
2026-05-07 19:25 51.88150 20.73068 8306 ft 293 kts 70°
2026-05-07 19:25 51.88829 20.76166 7684 ft 290 kts 70°
2026-05-07 19:26 51.89499 20.79230 7064 ft 288 kts 70°
2026-05-07 19:26 51.90164 20.82270 6455 ft 285 kts 70°
2026-05-07 19:26 51.90821 20.85278 5820 ft 282 kts 70°
2026-05-07 19:26 51.91475 20.88277 5427 ft 281 kts 70°
2026-05-07 19:27 51.92121 20.91247 5056 ft 279 kts 70°
2026-05-07 19:27 51.92762 20.94197 4670 ft 277 kts 70°
2026-05-07 19:27 51.93396 20.97122 4290 ft 274 kts 70°
2026-05-07 19:27 51.94021 21.00014 3921 ft 271 kts 70°
2026-05-07 19:28 51.94638 21.02873 3587 ft 266 kts 70°
2026-05-07 19:28 51.95228 21.05613 3455 ft 247 kts 70°
2026-05-07 19:28 51.95874 21.08029 3236 ft 230 kts 54°
2026-05-07 19:28 51.96975 21.09847 2980 ft 220 kts 31°
2026-05-07 19:29 51.98381 21.10801 2977 ft 220 kts
2026-05-07 19:29 51.99897 21.10847 2972 ft 219 kts 348°
2026-05-07 19:29 52.01320 21.09996 2974 ft 219 kts 331°
2026-05-07 19:29 52.02658 21.08829 2971 ft 217 kts 331°
2026-05-07 19:30 52.03952 21.07705 2996 ft 204 kts 331°
2026-05-07 19:30 52.05182 21.06637 2948 ft 198 kts 331°
2026-05-07 19:30 52.06396 21.05582 2560 ft 199 kts 333°
2026-05-07 19:30 52.07596 21.04538 2201 ft 190 kts 333°
2026-05-07 19:31 52.08713 21.03565 1949 ft 174 kts 333°
2026-05-07 19:31 52.09725 21.02685 1719 ft 160 kts 334°
2026-05-07 19:31 52.10675 21.01858 1491 ft 151 kts 333°
2026-05-07 19:31 52.11586 21.01061 1293 ft 147 kts 333°
2026-05-07 19:32 52.12478 21.00285 1096 ft 145 kts 333°
2026-05-07 19:32 52.13361 20.99520 898 ft 143 kts 332°
2026-05-07 19:32 52.14236 20.98754 690 ft 142 kts 332°
2026-05-07 19:32 52.15105 20.97995 500 ft 141 kts 332°
2026-05-07 19:33 52.15965 20.97242 348 ft 135 kts 332°
2026-05-07 19:33 52.16666 20.96631 340 ft 90 kts 332°
2026-05-07 19:33 52.17060 20.96287 335 ft 27 kts 332°
2026-05-07 19:33 52.17225 20.96236 333 ft 24 kts 358°
2026-05-07 19:34 52.17354 20.96244 339 ft 15 kts 10°
2026-05-07 19:34 52.17405 20.96314 337 ft 9 kts 57°
2026-05-07 19:34 52.17434 20.96391 335 ft 7 kts 62°
2026-05-07 19:34 52.17456 20.96456 339 ft 6 kts 61°
2026-05-07 19:35 52.17471 20.96510 338 ft 5 kts 75°
2026-05-07 19:35 52.17476 20.96540 336 ft 0 kts 75°
2026-05-07 19:35 52.17476 20.96541 336 ft 1 kts 75°
2026-05-07 19:36 52.17451 20.96587 336 ft 11 kts 155°
2026-05-07 19:36 52.17355 20.96666 337 ft 17 kts 152°
2026-05-07 19:36 52.17256 20.96753 336 ft 15 kts 151°
2026-05-07 19:36 52.17167 20.96832 336 ft 14 kts 151°
2026-05-07 19:37 52.17085 20.96905 337 ft 13 kts 152°
2026-05-07 19:37 52.17007 20.96974 336 ft 12 kts 152°
2026-05-07 19:37 52.16937 20.97035 338 ft 11 kts 153°
2026-05-07 19:37 52.16895 20.97088 336 ft 6 kts 105°
2026-05-07 19:38 52.16904 20.97162 337 ft 9 kts 76°
2026-05-07 19:38 52.16913 20.97221 337 ft 1 kts 76°
2026-05-07 19:38 52.16914 20.97226 336 ft 2 kts 76°
2026-05-07 19:38 52.16915 20.97231 336 ft 0 kts 76°